QPF
0.04 0.09 0.06 0.03 0.04 0.05 0.04 0.03 0.04 0.04 0.05 0.05 0.06 0.05 0.05 0.06 0.06 0.06 0.07 0.07 0.06 0.06 0.05 0.06 0.06 0.06 0.06 0.05 0.05 0.04 0.05 0.04 0.04 0.03 0.03 0.03 0.04 0.03 0.03 0.04 0.06 0.07 0.08
0.03 0.04 0.03 0.03 0.04 0.05 0.05 0.05 0.04 0.03 0.03 0.04 0.05 0.05 0.06 0.05 0.06 0.06 0.06 0.06 0.06 0.07 0.08 0.09 0.10 0.10 0.08 0.07 0.05 0.05 0.05 0.05 0.04 0.04 0.03 0.04 0.03 0.03 0.03 0.03 0.04 0.04 0.05
0.01 0.01 0.01 0.01 0.01 0.02 0.02 0.01 0.01 0.02 0.03 0.03 0.04 0.05 0.04 0.03 0.03 0.04 0.03 0.03 0.04 0.05 0.06 0.10 0.14 0.15 0.13 0.10 0.08 0.06 0.05 0.05 0.06 0.05 0.03 0.04 0.04 0.05 0.05 0.04 0.03 0.04 0.04
0.01 0.00 0.01 0.01 0.01 0.01 0.01 0.01 0.01 0.02 0.02 0.02 0.03 0.03 0.03 0.02 0.02 0.03 0.03 0.03 0.03 0.05 0.07 0.09 0.13 0.13 0.11 0.09 0.07 0.06 0.06 0.06 0.05 0.04 0.04 0.04 0.05 0.06 0.05 0.05 0.06 0.07 0.07
0.00 0.00 0.00 0.00 0.01 0.01 0.01 0.02 0.03 0.03 0.03 0.04 0.03 0.02 0.03 0.03 0.02 0.02 0.02 0.02 0.04 0.05 0.05 0.07 0.09 0.06 0.06 0.07 0.07 0.07 0.08 0.07 0.06 0.06 0.06 0.07 0.07 0.08 0.09 0.09 0.09 0.10 0.10
0.00 0.00 0.00 0.01 0.01 0.02 0.03 0.03 0.04 0.06 0.06 0.07 0.04 0.03 0.03 0.02 0.02 0.03 0.02 0.02 0.02 0.03 0.03 0.02 0.02 0.01 0.02 0.03 0.03 0.05 0.07 0.07 0.07 0.07 0.08 0.10 0.10 0.10 0.11 0.12 0.13 0.13 0.13
0.00 0.00 0.00 0.01 0.02 0.02 0.03 0.04 0.06 0.06 0.05 0.04 0.03 0.03 0.02 0.02 0.02 0.02 0.02 0.02 0.02 0.01 0.01 0.02 0.01 0.01 0.02 0.02 0.03 0.04 0.04 0.05 0.05 0.05 0.05 0.06 0.06 0.07 0.08 0.09 0.10 0.10 0.10
0.01 0.00 0.01 0.02 0.03 0.04 0.04 0.03 0.03 0.03 0.02 0.02 0.02 0.02 0.02 0.03 0.02 0.02 0.02 0.02 0.02 0.01 0.02 0.02 0.02 0.02 0.02 0.01 0.02 0.03 0.02 0.04 0.05 0.07 0.08 0.08 0.07 0.07 0.07 0.06 0.06 0.06 0.06
0.02 0.01 0.01 0.02 0.04 0.05 0.05 0.05 0.04 0.04 0.03 0.02 0.02 0.02 0.02 0.02 0.03 0.03 0.03 0.02 0.02 0.02 0.03 0.04 0.03 0.02 0.02 0.02 0.02 0.03 0.03 0.04 0.07 0.10 0.08 0.07 0.07 0.07 0.05 0.04 0.04 0.04 0.04
0.02 0.02 0.03 0.04 0.04 0.05 0.06 0.08 0.08 0.08 0.06 0.02 0.02 0.02 0.02 0.02 0.03 0.04 0.04 0.03 0.03 0.03 0.03 0.05 0.06 0.04 0.02 0.01 0.01 0.01 0.02 0.04 0.05 0.04 0.03 0.03 0.03 0.03 0.03 0.02 0.02 0.02 0.02
0.03 0.04 0.03 0.03 0.02 0.03 0.04 0.04 0.04 0.04 0.03 0.02 0.02 0.02 0.02 0.02 0.03 0.04 0.04 0.03 0.03 0.04 0.06 0.06 0.05 0.03 0.02 0.02 0.02 0.01 0.01 0.02 0.02 0.01 0.01 0.01 0.01 0.02 0.02 0.02 0.02 0.02 0.02
0.03 0.03 0.03 0.02 0.02 0.03 0.03 0.02 0.02 0.03 0.02 0.02 0.03 0.02 0.01 0.02 0.02 0.02 0.04 0.06 0.06 0.05 0.06 0.07 0.07 0.06 0.05 0.03 0.03 0.03 0.03 0.02 0.01 0.01 0.01 0.01 0.01 0.01 0.03 0.04 0.05 0.05 0.05
0.02 0.02 0.01 0.01 0.02 0.02 0.02 0.02 0.01 0.01 0.02 0.02 0.02 0.01 0.01 0.01 0.01 0.02 0.03 0.06 0.08 0.07 0.05 0.04 0.06 0.06 0.05 0.04 0.04 0.03 0.03 0.02 0.01 0.01 0.01 0.01 0.01 0.01 0.02 0.03 0.04 0.05 0.06
0.02 0.01 0.01 0.01 0.01 0.01 0.01 0.01 0.01 0.01 0.01 0.01 0.01 0.01 0.01 0.00 0.00 0.01 0.02 0.04 0.06 0.10 0.09 0.06 0.05 0.04 0.04 0.03 0.03 0.03 0.02 0.01 0.01 0.01 0.01 0.01 0.01 0.02 0.02 0.02 0.01 0.02 0.02
0.02 0.02 0.01 0.01 0.02 0.02 0.01 0.01 0.01 0.01 0.01 0.02 0.03 0.02 0.01 0.00 0.00 0.00 0.01 0.01 0.02 0.05 0.05 0.03 0.03 0.03 0.02 0.01 0.01 0.01 0.01 0.01 0.01 0.01 0.01 0.01 0.01 0.01 0.02 0.02 0.01 0.01 0.01
0.02 0.02 0.02 0.01 0.01 0.01 0.00 0.00 0.01 0.02 0.03 0.03 0.03 0.03 0.02 0.01 0.01 0.01 0.01 0.01 0.01 0.01 0.01 0.01 0.01 0.01 0.01 0.01 0.01 0.01 0.00 0.00 0.00 0.00 0.00 0.00 0.01 0.01 0.01 0.01 0.01 0.01 0.01
0.02 0.01 0.01 0.01 0.01 0.01 0.00 0.00 0.01 0.02 0.03 0.04 0.03 0.02 0.02 0.02 0.01 0.01 0.01 0.01 0.01 0.00 0.00 0.00 0.00 0.00 0.00 0.00 0.00 0.01 0.00 0.00 0.00 0.00 0.00 0.00 0.00 0.00 0.00 0.01 0.01 0.02 0.02
0.01 0.01 0.01 0.01 0.01 0.01 0.01 0.01 0.01 0.01 0.02 0.02 0.03 0.03 0.02 0.02 0.01 0.01 0.01 0.00 0.00 0.00 0.00 0.00 0.00 0.00 0.00 0.00 0.01 0.01 0.00 0.00 0.00 0.00 0.00 0.00 0.01 0.01 0.01 0.01 0.01 0.02 0.02
0.02 0.02 0.02 0.02 0.02 0.02 0.02 0.02 0.01 0.02 0.02 0.02 0.02 0.03 0.03 0.02 0.01 0.00 0.01 0.00 0.00 0.00 0.00 0.00 0.00 0.00 0.00 0.00 0.00 0.00 0.00 0.00 0.00 0.00 0.00 0.00 0.00 0.01 0.01 0.01 0.01 0.02 0.03
0.02 0.02 0.02 0.02 0.02 0.02 0.02 0.03 0.03 0.03 0.03 0.03 0.03 0.03 0.03 0.02 0.01 0.01 0.01 0.00 0.00 0.00 0.00 0.00 0.00 0.00 0.00 0.00 0.00 0.00 0.00 0.00 0.00 0.00 0.00 0.00 0.00 0.00 0.00 0.00 0.01 0.01 0.01
0.02 0.02 0.02 0.02 0.01 0.01 0.02 0.03 0.03 0.03 0.03 0.03 0.03 0.03 0.02 0.02 0.01 0.01 0.01 0.00 0.00 0.00 0.00 0.00 0.01 0.01 0.01 0.00 0.00 0.00 0.01 0.01 0.00 0.00 0.00 0.00 0.00 0.00 0.00 0.00 0.00 0.00 0.00
0.02 0.02 0.02 0.02 0.02 0.02 0.02 0.02 0.03 0.03 0.03 0.02 0.02 0.02 0.02 0.01 0.01 0.01 0.01 0.01 0.01 0.01 0.01 0.01 0.01 0.01 0.01 0.01 0.01 0.01 0.01 0.01 0.01 0.01 0.01 0.00 0.00 0.00 0.00 0.00 0.00 0.00 0.01
0.03 0.03 0.03 0.03 0.02 0.02 0.03 0.02 0.02 0.02 0.02 0.02 0.02 0.02 0.01 0.01 0.01 0.00 0.00 0.00 0.00 0.00 0.00 0.01 0.01 0.01 0.01 0.01 0.01 0.01 0.01 0.01 0.01 0.01 0.01 0.01 0.01 0.00 0.00 0.00 0.00 0.00 0.00
0.03 0.03 0.03 0.03 0.03 0.02 0.02 0.02 0.02 0.02 0.02 0.02 0.01 0.01 0.01 0.01 0.01 0.01 0.01 0.01 0.01 0.00 0.00 0.00 0.00 0.00 0.00 0.01 0.01 0.01 0.00 0.00 0.00 0.01 0.01 0.01 0.01 0.01 0.01 0.01 0.00 0.00 0.00
0.04 0.04 0.04 0.03 0.02 0.02 0.02 0.02 0.01 0.02 0.01 0.01 0.01 0.01 0.01 0.02 0.02 0.02 0.01 0.01 0.01 0.01 0.01 0.00 0.01 0.01 0.01 0.01 0.01 0.01 0.01 0.01 0.01 0.01 0.01 0.01 0.02 0.02 0.02 0.02 0.02 0.01 0.01
0.03 0.03 0.03 0.02 0.01 0.01 0.01 0.01 0.02 0.02 0.02 0.02 0.03 0.03 0.03 0.02 0.02 0.01 0.01 0.01 0.01 0.01 0.01 0.01 0.02 0.02 0.03 0.02 0.02 0.02 0.02 0.01 0.01 0.01 0.01 0.01 0.01 0.01 0.02 0.02 0.02 0.02 0.02
MSLP
1020.49 1020.71 1020.99 1021.29 1021.54 1021.71 1021.77 1021.74 1021.62 1021.46 1021.29 1021.15 1021.05 1021.01 1020.99 1020.98 1020.93 1020.82 1020.62 1020.32 1019.95 1019.53 1019.10 1018.72 1018.42 1018.24 1018.21 1018.33 1018.61 1019.00 1019.47 1019.99 1020.52 1021.01 1021.45 1021.80 1022.06 1022.24 1022.35 1022.40 1022.40 1022.38 1022.33
1020.84 1021.08 1021.39 1021.70 1021.98 1022.19 1022.29 1022.29 1022.20 1022.06 1021.91 1021.76 1021.65 1021.59 1021.55 1021.53 1021.49 1021.41 1021.25 1021.01 1020.69 1020.31 1019.90 1019.51 1019.19 1018.96 1018.87 1018.93 1019.15 1019.50 1019.96 1020.49 1021.05 1021.59 1022.09 1022.49 1022.81 1023.02 1023.15 1023.20 1023.20 1023.17 1023.13
1021.11 1021.40 1021.73 1022.07 1022.38 1022.61 1022.75 1022.79 1022.74 1022.63 1022.49 1022.34 1022.22 1022.13 1022.08 1022.06 1022.03 1021.97 1021.86 1021.68 1021.43 1021.12 1020.77 1020.42 1020.10 1019.86 1019.73 1019.74 1019.89 1020.18 1020.59 1021.08 1021.61 1022.14 1022.63 1023.05 1023.37 1023.60 1023.73 1023.79 1023.80 1023.79 1023.77
1021.27 1021.61 1021.97 1022.34 1022.68 1022.95 1023.13 1023.22 1023.21 1023.14 1023.02 1022.89 1022.76 1022.66 1022.60 1022.56 1022.53 1022.50 1022.43 1022.32 1022.15 1021.93 1021.66 1021.38 1021.10 1020.87 1020.73 1020.69 1020.78 1020.99 1021.31 1021.72 1022.18 1022.65 1023.09 1023.47 1023.76 1023.98 1024.10 1024.17 1024.20 1024.22 1024.24
1021.29 1021.68 1022.09 1022.49 1022.86 1023.16 1023.39 1023.53 1023.59 1023.57 1023.50 1023.39 1023.28 1023.18 1023.10 1023.05 1023.02 1023.00 1022.97 1022.92 1022.83 1022.70 1022.52 1022.31 1022.10 1021.90 1021.76 1021.69 1021.71 1021.84 1022.06 1022.36 1022.72 1023.08 1023.44 1023.74 1023.99 1024.17 1024.29 1024.36 1024.42 1024.47 1024.54
1021.16 1021.61 1022.06 1022.49 1022.89 1023.23 1023.52 1023.73 1023.86 1023.91 1023.90 1023.84 1023.76 1023.67 1023.59 1023.52 1023.49 1023.47 1023.46 1023.45 1023.43 1023.37 1023.28 1023.15 1023.00 1022.85 1022.72 1022.62 1022.60 1022.64 1022.76 1022.95 1023.18 1023.43 1023.67 1023.90 1024.08 1024.22 1024.32 1024.41 1024.49 1024.58 1024.70
1020.89 1021.39 1021.87 1022.34 1022.77 1023.16 1023.50 1023.79 1024.00 1024.15 1024.22 1024.23 1024.19 1024.12 1024.04 1023.97 1023.92 1023.90 1023.90 1023.91 1023.92 1023.92 1023.89 1023.84 1023.75 1023.64 1023.53 1023.42 1023.35 1023.33 1023.35 1023.43 1023.54 1023.68 1023.83 1023.96 1024.08 1024.18 1024.27 1024.35 1024.46 1024.59 1024.76
1020.49 1021.04 1021.56 1022.04 1022.51 1022.95 1023.35 1023.72 1024.03 1024.27 1024.43 1024.53 1024.55 1024.52 1024.45 1024.38 1024.32 1024.27 1024.26 1024.27 1024.30 1024.34 1024.35 1024.35 1024.31 1024.24 1024.15 1024.04 1023.94 1023.86 1023.82 1023.80 1023.82 1023.86 1023.92 1023.98 1024.05 1024.11 1024.18 1024.27 1024.39 1024.55 1024.74
1020.01 1020.60 1021.14 1021.65 1022.15 1022.63 1023.10 1023.54 1023.94 1024.28 1024.54 1024.72 1024.81 1024.82 1024.79 1024.72 1024.64 1024.58 1024.55 1024.55 1024.58 1024.63 1024.67 1024.70 1024.70 1024.66 1024.58 1024.49 1024.38 1024.27 1024.17 1024.10 1024.05 1024.03 1024.03 1024.04 1024.06 1024.10 1024.15 1024.24 1024.36 1024.52 1024.72
1019.49 1020.11 1020.67 1021.20 1021.72 1022.24 1022.77 1023.28 1023.77 1024.19 1024.55 1024.81 1024.96 1025.03 1025.02 1024.97 1024.89 1024.82 1024.77 1024.76 1024.79 1024.84 1024.89 1024.94 1024.96 1024.94 1024.89 1024.80 1024.69 1024.57 1024.46 1024.36 1024.28 1024.22 1024.19 1024.17 1024.17 1024.19 1024.23 1024.30 1024.40 1024.55 1024.73
1018.95 1019.59 1020.18 1020.73 1021.27 1021.83 1022.40 1022.97 1023.52 1024.03 1024.45 1024.78 1025.00 1025.11 1025.14 1025.11 1025.04 1024.98 1024.93 1024.91 1024.94 1024.98 1025.05 1025.10 1025.14 1025.14 1025.11 1025.04 1024.94 1024.83 1024.72 1024.62 1024.54 1024.48 1024.43 1024.41 1024.40 1024.41 1024.43 1024.48 1024.56 1024.67 1024.81
1018.40 1019.07 1019.68 1020.26 1020.83 1021.42 1022.03 1022.64 1023.24 1023.79 1024.27 1024.65 1024.91 1025.07 1025.14 1025.14 1025.10 1025.06 1025.02 1025.02 1025.05 1025.10 1025.17 1025.24 1025.29 1025.30 1025.28 1025.23 1025.16 1025.07 1024.98 1024.90 1024.83 1024.79 1024.76 1024.74 1024.73 1024.73 1024.74 1024.77 1024.81 1024.88 1024.97
1017.85 1018.55 1019.19 1019.80 1020.41 1021.03 1021.67 1022.31 1022.93 1023.51 1024.01 1024.42 1024.72 1024.92 1025.03 1025.07 1025.07 1025.06 1025.06 1025.08 1025.13 1025.20 1025.28 1025.36 1025.42 1025.44 1025.44 1025.41 1025.35 1025.28 1025.22 1025.17 1025.14 1025.12 1025.11 1025.12 1025.12 1025.12 1025.12 1025.13 1025.13 1025.15 1025.19
1017.28 1018.02 1018.70 1019.36 1020.01 1020.66 1021.32 1021.98 1022.61 1023.19 1023.70 1024.12 1024.44 1024.67 1024.82 1024.90 1024.95 1024.99 1025.04 1025.10 1025.19 1025.28 1025.38 1025.46 1025.53 1025.56 1025.57 1025.54 1025.50 1025.46 1025.43 1025.41 1025.40 1025.42 1025.45 1025.48 1025.50 1025.51 1025.50 1025.49 1025.46 1025.44 1025.43
1016.70 1017.47 1018.21 1018.92 1019.62 1020.30 1020.98 1021.65 1022.27 1022.85 1023.35 1023.77 1024.10 1024.34 1024.52 1024.66 1024.76 1024.86 1024.96 1025.08 1025.20 1025.33 1025.44 1025.54 1025.61 1025.64 1025.65 1025.63 1025.60 1025.57 1025.56 1025.57 1025.60 1025.64 1025.70 1025.75 1025.80 1025.82 1025.81 1025.79 1025.75 1025.70 1025.66
1016.09 1016.91 1017.70 1018.47 1019.22 1019.94 1020.64 1021.31 1021.93 1022.48 1022.97 1023.38 1023.71 1023.97 1024.18 1024.36 1024.52 1024.68 1024.84 1025.01 1025.17 1025.33 1025.46 1025.57 1025.64 1025.67 1025.67 1025.65 1025.62 1025.60 1025.61 1025.63 1025.69 1025.76 1025.84 1025.92 1025.98 1026.01 1026.01 1025.99 1025.95 1025.89 1025.84
1015.45 1016.31 1017.16 1017.98 1018.78 1019.55 1020.27 1020.95 1021.56 1022.10 1022.57 1022.96 1023.29 1023.57 1023.81 1024.03 1024.24 1024.46 1024.67 1024.89 1025.09 1025.28 1025.43 1025.54 1025.60 1025.63 1025.62 1025.60 1025.58 1025.56 1025.58 1025.62 1025.69 1025.78 1025.88 1025.97 1026.05 1026.09 1026.10 1026.08 1026.04 1025.99 1025.94
1014.79 1015.69 1016.58 1017.45 1018.30 1019.11 1019.86 1020.55 1021.16 1021.69 1022.15 1022.54 1022.87 1023.17 1023.44 1023.70 1023.95 1024.22 1024.48 1024.73 1024.97 1025.18 1025.34 1025.45 1025.52 1025.54 1025.53 1025.51 1025.48 1025.48 1025.51 1025.56 1025.65 1025.75 1025.86 1025.96 1026.04 1026.09 1026.10 1026.09 1026.06 1026.02 1025.97
1014.12 1015.03 1015.96 1016.88 1017.77 1018.61 1019.39 1020.10 1020.72 1021.26 1021.72 1022.11 1022.46 1022.77 1023.07 1023.36 1023.66 1023.96 1024.26 1024.54 1024.80 1025.03 1025.20 1025.31 1025.38 1025.41 1025.40 1025.39 1025.38 1025.39 1025.43 1025.50 1025.60 1025.71 1025.83 1025.93 1026.01 1026.06 1026.07 1026.06 1026.03 1025.99 1025.96
1013.45 1014.36 1015.30 1016.25 1017.18 1018.06 1018.87 1019.59 1020.23 1020.79 1021.26 1021.67 1022.04 1022.38 1022.71 1023.03 1023.36 1023.69 1024.01 1024.32 1024.59 1024.82 1025.00 1025.13 1025.21 1025.25 1025.26 1025.27 1025.28 1025.32 1025.39 1025.48 1025.59 1025.72 1025.84 1025.94 1026.01 1026.05 1026.05 1026.03 1026.00 1025.96 1025.93
1012.77 1013.68 1014.63 1015.60 1016.55 1017.45 1018.29 1019.04 1019.70 1020.28 1020.78 1021.22 1021.62 1021.98 1022.34 1022.69 1023.05 1023.40 1023.74 1024.05 1024.34 1024.57 1024.76 1024.90 1024.99 1025.05 1025.09 1025.14 1025.19 1025.27 1025.37 1025.49 1025.63 1025.77 1025.89 1025.99 1026.06 1026.08 1026.07 1026.04 1025.99 1025.94 1025.90
1012.11 1013.00 1013.95 1014.93 1015.89 1016.81 1017.66 1018.44 1019.14 1019.74 1020.27 1020.75 1021.17 1021.57 1021.95 1022.33 1022.70 1023.06 1023.41 1023.73 1024.01 1024.25 1024.45 1024.60 1024.71 1024.80 1024.89 1024.97 1025.08 1025.20 1025.35 1025.51 1025.68 1025.84 1025.97 1026.07 1026.13 1026.15 1026.12 1026.07 1026.01 1025.94 1025.89
1011.48 1012.36 1013.30 1014.27 1015.23 1016.16 1017.03 1017.83 1018.54 1019.17 1019.74 1020.24 1020.70 1021.12 1021.53 1021.92 1022.30 1022.67 1023.01 1023.33 1023.61 1023.85 1024.05 1024.21 1024.35 1024.48 1024.60 1024.74 1024.89 1025.07 1025.27 1025.47 1025.68 1025.86 1026.02 1026.13 1026.19 1026.20 1026.17 1026.11 1026.03 1025.95 1025.88
1010.90 1011.77 1012.70 1013.65 1014.61 1015.53 1016.40 1017.21 1017.94 1018.59 1019.17 1019.70 1020.18 1020.63 1021.05 1021.45 1021.83 1022.20 1022.54 1022.84 1023.12 1023.35 1023.56 1023.73 1023.89 1024.05 1024.21 1024.39 1024.60 1024.82 1025.07 1025.32 1025.56 1025.78 1025.96 1026.09 1026.16 1026.18 1026.15 1026.09 1026.01 1025.93 1025.85
1010.42 1011.27 1012.18 1013.12 1014.06 1014.96 1015.82 1016.62 1017.34 1018.00 1018.60 1019.14 1019.63 1020.09 1020.52 1020.92 1021.30 1021.66 1021.99 1022.29 1022.55 1022.78 1022.98 1023.17 1023.34 1023.52 1023.71 1023.93 1024.17 1024.43 1024.71 1025.00 1025.27 1025.52 1025.73 1025.89 1025.98 1026.03 1026.02 1025.98 1025.91 1025.83 1025.75
1010.06 1010.90 1011.79 1012.70 1013.60 1014.47 1015.30 1016.07 1016.78 1017.43 1018.02 1018.56 1019.05 1019.51 1019.94 1020.35 1020.72 1021.07 1021.39 1021.68 1021.93 1022.16 1022.36 1022.55 1022.73 1022.92 1023.13 1023.37 1023.63 1023.92 1024.22 1024.52 1024.82 1025.09 1025.33 1025.51 1025.64 1025.71 1025.74 1025.72 1025.68 1025.62 1025.55
Thickness
5774 5769 5765 5762 5760 5756 5753 5749 5746 5744 5741 5739 5736 5734 5732 5731 5730 5729 5727 5726 5724 5723 5722 5720 5718 5717 5715 5712 5709 5705 5702 5699 5692 5687 5684 5682 5680 5678 5675 5673 5671 5668 5666
5773 5769 5764 5761 5758 5754 5751 5748 5745 5741 5738 5735 5733 5731 5729 5728 5726 5725 5723 5722 5721 5719 5717 5716 5714 5713 5710 5707 5704 5701 5697 5694 5690 5683 5679 5676 5674 5672 5669 5667 5664 5662 5659
5773 5768 5763 5759 5756 5753 5749 5746 5743 5739 5735 5733 5730 5728 5726 5724 5723 5721 5720 5718 5717 5715 5714 5712 5710 5708 5705 5702 5700 5697 5693 5690 5686 5681 5675 5672 5668 5666 5662 5659 5656 5653 5651
5771 5766 5761 5758 5754 5751 5747 5743 5740 5736 5733 5730 5727 5725 5723 5721 5720 5718 5716 5714 5712 5711 5709 5707 5705 5703 5700 5698 5695 5692 5688 5684 5680 5676 5671 5667 5663 5659 5656 5653 5649 5646 5643
5769 5763 5759 5755 5752 5748 5744 5740 5737 5733 5730 5727 5724 5721 5720 5718 5716 5714 5712 5710 5708 5706 5704 5702 5700 5699 5696 5694 5691 5687 5684 5679 5675 5670 5666 5662 5658 5654 5651 5647 5643 5638 5634
5766 5761 5757 5752 5748 5744 5740 5736 5733 5729 5726 5723 5720 5717 5715 5714 5712 5710 5708 5706 5703 5701 5698 5696 5695 5693 5691 5688 5685 5682 5679 5675 5670 5665 5661 5657 5653 5649 5645 5641 5637 5633 5628
5763 5758 5753 5749 5744 5740 5737 5732 5728 5725 5722 5719 5716 5713 5710 5708 5707 5705 5703 5701 5698 5695 5693 5690 5688 5686 5684 5681 5678 5675 5671 5668 5666 5662 5657 5653 5649 5645 5641 5636 5631 5627 5622
5759 5754 5749 5745 5740 5736 5731 5727 5723 5720 5717 5713 5711 5709 5707 5704 5702 5700 5698 5695 5692 5689 5687 5684 5681 5679 5677 5675 5672 5667 5664 5661 5658 5655 5652 5648 5644 5640 5635 5631 5625 5619 5613
5754 5750 5746 5742 5737 5732 5727 5723 5719 5715 5712 5708 5706 5704 5702 5699 5697 5695 5692 5689 5685 5683 5680 5678 5676 5674 5671 5668 5665 5661 5657 5653 5650 5647 5644 5640 5637 5633 5629 5624 5618 5613 5608
5751 5748 5744 5739 5734 5729 5725 5720 5715 5711 5707 5704 5701 5698 5696 5694 5692 5690 5687 5683 5679 5676 5674 5671 5669 5667 5664 5661 5658 5654 5650 5646 5643 5640 5636 5632 5629 5625 5621 5617 5613 5608 5602
5750 5744 5740 5735 5731 5726 5721 5716 5711 5707 5702 5698 5695 5693 5691 5688 5686 5683 5681 5677 5673 5669 5667 5664 5661 5659 5656 5654 5650 5647 5643 5639 5635 5632 5628 5624 5620 5616 5612 5608 5604 5601 5597
5745 5739 5734 5730 5727 5722 5717 5711 5707 5702 5697 5693 5690 5687 5684 5682 5680 5677 5674 5671 5668 5664 5661 5658 5655 5652 5649 5646 5643 5639 5636 5633 5629 5624 5620 5616 5612 5608 5604 5600 5596 5592 5588
5738 5733 5729 5725 5721 5717 5712 5707 5702 5698 5693 5689 5685 5682 5678 5676 5674 5672 5669 5665 5662 5659 5656 5652 5649 5646 5642 5638 5635 5631 5628 5625 5622 5617 5613 5609 5605 5601 5597 5593 5588 5584 5580
5732 5727 5723 5719 5715 5711 5706 5703 5699 5694 5689 5685 5681 5677 5674 5671 5669 5666 5663 5660 5656 5652 5649 5646 5642 5639 5635 5631 5627 5624 5621 5618 5614 5610 5606 5601 5597 5593 5589 5585 5581 5577 5573
5726 5721 5717 5714 5710 5705 5701 5697 5694 5691 5688 5684 5680 5675 5671 5668 5665 5662 5658 5654 5651 5647 5643 5640 5636 5632 5628 5624 5620 5616 5612 5609 5606 5602 5598 5594 5590 5586 5582 5578 5573 5569 5565
5721 5716 5712 5709 5705 5701 5696 5691 5688 5686 5683 5680 5676 5672 5668 5665 5660 5657 5653 5649 5645 5642 5638 5634 5629 5625 5622 5618 5614 5609 5605 5602 5598 5595 5591 5587 5583 5579 5575 5570 5566 5562 5559
5718 5713 5709 5705 5701 5697 5693 5689 5684 5679 5676 5673 5670 5666 5663 5659 5655 5652 5647 5643 5639 5636 5632 5628 5624 5619 5615 5611 5607 5603 5599 5595 5591 5587 5584 5580 5576 5572 5568 5564 5559 5555 5552
5714 5710 5706 5702 5698 5694 5690 5686 5682 5678 5672 5668 5664 5660 5657 5654 5650 5646 5641 5637 5632 5629 5626 5622 5618 5613 5609 5605 5600 5596 5592 5588 5584 5580 5577 5573 5569 5565 5561 5558 5554 5550 5546
5709 5705 5701 5697 5694 5690 5686 5682 5678 5673 5669 5664 5659 5655 5651 5648 5643 5639 5635 5632 5629 5624 5620 5616 5612 5607 5603 5598 5594 5590 5586 5582 5578 5574 5570 5566 5562 5559 5555 5551 5548 5543 5539
5704 5701 5697 5693 5689 5685 5682 5678 5673 5669 5665 5660 5657 5652 5646 5642 5638 5634 5630 5627 5623 5619 5615 5610 5606 5602 5597 5593 5588 5584 5580 5576 5572 5568 5564 5560 5556 5552 5549 5545 5542 5538 5534
5698 5695 5691 5688 5686 5682 5678 5674 5670 5665 5661 5657 5653 5649 5644 5640 5636 5631 5627 5622 5619 5615 5610 5606 5601 5596 5592 5587 5583 5578 5575 5571 5566 5562 5558 5554 5550 5547 5543 5540 5536 5533 5529
5694 5691 5687 5684 5681 5677 5673 5669 5665 5661 5657 5653 5649 5643 5638 5635 5632 5627 5623 5618 5614 5610 5605 5600 5595 5591 5586 5582 5577 5573 5569 5564 5560 5556 5552 5548 5544 5541 5537 5534 5530 5527 5523
5689 5686 5683 5679 5675 5671 5667 5664 5660 5657 5653 5649 5644 5639 5634 5630 5627 5622 5618 5614 5609 5604 5599 5594 5590 5585 5581 5576 5571 5567 5563 5559 5554 5550 5546 5543 5539 5535 5532 5528 5525 5521 5518
5683 5681 5677 5673 5669 5665 5662 5658 5655 5651 5648 5644 5639 5634 5630 5625 5621 5617 5613 5608 5603 5599 5594 5589 5584 5580 5575 5570 5565 5561 5557 5553 5549 5544 5540 5537 5534 5530 5526 5522 5519 5516 5512
5677 5673 5670 5667 5663 5660 5656 5652 5648 5645 5642 5638 5634 5629 5625 5620 5615 5611 5607 5602 5597 5593 5588 5583 5578 5574 5569 5564 5560 5555 5551 5547 5543 5539 5534 5530 5527 5523 5520 5516 5513 5509 5506
5669 5666 5663 5660 5657 5654 5650 5646 5642 5639 5636 5632 5628 5623 5619 5614 5610 5605 5600 5596 5591 5586 5582 5577 5572 5568 5563 5558 5553 5549 5545 5541 5537 5532 5528 5524 5520 5517 5513 5510 5507 5503 5500